Duluth, MN

6:55 PM CDT on April 26, 2017 (GMT -0500)
Duluth International

Weather History for KDLH - September, 2012

Change the Weather History Date:

Saturday, September 22, 2012

  Actual Average Record
Temperature  
Mean Temperature 43 °F 53 °F  
Max Temperature 51 °F 62 °F 84 °F (1922)
Min Temperature 34 °F 44 °F 23 °F (1974)
Degree Days  
Heating Degree Days 22 12  
Month to date heating degree days 168 184  
Since 1 July heating degree days 215 333  
Cooling Degree Days 0 0  
Month to date cooling degree days 24 13  
Year to date cooling degree days 409 203  
Moisture  
Dew Point 34 °F    
Average Humidity 70    
Maximum Humidity 93    
Minimum Humidity 46    
Precipitation  
Precipitation T in 0.14 in 2.18 in (1895)
Month to date precipitation 0.84 3.08  
Year to date precipitation 29.09 23.78  
Snow  
Snow 0.10 in 0.00 in T in (2012)
Month to date snowfall 0.2 0.0  
Since 1 July snowfall 0.2 0.0  
Since 1 September snowfall 0.2 0.0  
Snow Depth 0.00 in    
Sea Level Pressure  
Sea Level Pressure 30.04 in    
Wind  
Wind Speed 11 mph (NNW)    
Max Wind Speed 22 mph    
Max Gust Speed 31 mph    
Visibility 8 miles    
Events Rain , Snow    
T = Trace of Precipitation, MM = Missing Value Source: NWS Daily Summary

Daily Weather History Graph

Daily Weather History Graph

Search for Another Location

Airport or City:

Trip Planner

Search our weather history database for the weather conditions in past years. The results will help you decide how hot, cold, wet, or windy it might be!

Date:

Astronomy

Sep. 22, 2012 Rise Set
Actual Time 6:56 AM CDT 7:05 PM CDT
Civil Twilight 6:25 AM CDT 7:35 PM CDT
Nautical Twilight 5:50 AM CDT 8:11 PM CDT
Astronomical Twilight 5:13 AM CDT 8:47 PM CDT
Moon 2:36 PM CDT (9/22) 11:49 PM CDT (9/22)
Length of Visible Light 13h 09m
Length of Day
12h 09m
Waxing Crescent, 49% of the Moon is Illuminated
Sep 22
Waxing Crescent
Sep 22
First Quarter
Sep 29
Full
Oct 8
Last Quarter
Oct 15
New

Hourly Weather History & Observations

Time (CDT) Temp. Windchill Dew Point Humidity Pressure Visibility Wind Dir Wind Speed Gust Speed Precip Events Conditions
12:05 AM 33.8 °F 25.3 °F 32.0 °F 93% 29.79 in 1.5 mi NW 11.5 mph - 0.01 in Rain , Snow Light Rain
12:25 AM 33.8 °F 25.8 °F 32.0 °F 93% 29.80 in 2.0 mi NW 10.4 mph - 0.02 in Snow Light Snow
12:55 AM 34.0 °F 26.6 °F 32.0 °F 92% 29.84 in 3.0 mi NW 9.2 mph - 0.03 in Snow Light Snow
1:06 AM 33.8 °F 26.4 °F 32.0 °F 93% 29.81 in 4.0 mi NW 9.2 mph - 0.00 in Snow Light Snow
1:45 AM 33.8 °F 27.7 °F 33.8 °F 100% 29.83 in 2.0 mi NW 6.9 mph - 0.00 in Snow Light Snow
1:55 AM 35.1 °F 27.9 °F 33.1 °F 92% 29.87 in 1.8 mi NW 9.2 mph - 0.00 in Snow Light Snow
2:55 AM 36.0 °F 28.0 °F 35.1 °F 97% 29.90 in 1.5 mi NNW 11.5 mph - 0.00 in Snow Light Snow
3:17 AM 37.4 °F 30.3 °F 35.6 °F 93% 29.88 in 2.5 mi NNW 10.4 mph - 0.00 in   Light Drizzle
3:25 AM 37.4 °F 30.3 °F 35.6 °F 93% 29.88 in 5.0 mi NNW 10.4 mph - 0.00 in   Light Drizzle
3:55 AM 39.0 °F 32.3 °F 37.0 °F 93% 29.94 in 10.0 mi NNW 10.4 mph - 0.00 in   Overcast
4:14 AM 39.2 °F 32.5 °F 37.4 °F 93% 29.91 in 10.0 mi NNW 10.4 mph - N/A   Overcast
4:55 AM 41.0 °F 34.7 °F 39.0 °F 93% 29.98 in 10.0 mi NNW 10.4 mph - N/A   Overcast
5:02 AM 41.0 °F 35.8 °F 39.2 °F 93% 29.95 in 10.0 mi NNW 8.1 mph - N/A   Overcast
5:10 AM 41.0 °F 34.7 °F 39.2 °F 93% 29.95 in 10.0 mi NNW 10.4 mph - N/A   Overcast
5:19 AM 42.8 °F 37.5 °F 39.2 °F 87% 29.96 in 10.0 mi NNW 9.2 mph - N/A   Overcast
5:55 AM 41.0 °F 34.7 °F 37.9 °F 89% 30.02 in 10.0 mi NNW 10.4 mph - N/A   Mostly Cloudy
6:55 AM 39.9 °F 32.9 °F 37.0 °F 89% 30.06 in 10.0 mi NNW 11.5 mph - N/A   Mostly Cloudy
7:02 AM 39.2 °F 33.0 °F 37.4 °F 93% 30.02 in 10.0 mi North 9.2 mph - N/A   Mostly Cloudy
7:55 AM 41.0 °F 35.8 °F 37.0 °F 86% 30.09 in 10.0 mi NNW 8.1 mph - N/A   Mostly Cloudy
8:55 AM 41.0 °F 34.3 °F 36.0 °F 82% 30.13 in 10.0 mi NNW 11.5 mph 21.9 mph N/A   Overcast
9:55 AM 41.0 °F 33.9 °F 34.0 °F 76% 30.15 in 10.0 mi NNW 12.7 mph 25.3 mph N/A   Mostly Cloudy
10:55 AM 45.0 °F 37.9 °F 35.1 °F 68% 30.15 in 10.0 mi NW 16.1 mph 27.6 mph N/A   Mostly Cloudy
11:13 AM 46.4 °F 40.4 °F 35.6 °F 66% 30.11 in 10.0 mi NW 13.8 mph 26.5 mph N/A   Scattered Clouds
11:26 AM 44.6 °F 37.8 °F 35.6 °F 71% 30.11 in 10.0 mi NW 15.0 mph - 0.00 in Rain Light Rain
11:47 AM 46.4 °F 39.8 °F 35.6 °F 66% 30.11 in 10.0 mi NW 16.1 mph 26.5 mph 0.00 in   Mostly Cloudy
11:55 AM 48.0 °F - 34.0 °F 58% 30.16 in 10.0 mi NNW 18.4 mph - 0.00 in   Mostly Cloudy
12:55 PM 44.6 °F 37.8 °F 35.6 °F 71% 30.13 in 10.0 mi NW 15.0 mph 24.2 mph N/A Rain Light Rain
1:55 PM 48.0 °F - 33.1 °F 56% 30.16 in 10.0 mi NNW 16.1 mph 21.9 mph 0.00 in   Mostly Cloudy
2:55 PM 46.0 °F 40.6 °F 34.0 °F 63% 30.17 in 10.0 mi NW 11.5 mph 25.3 mph 0.00 in Rain Light Rain
3:55 PM 50.0 °F - 30.0 °F 46% 30.16 in 10.0 mi NNW 13.8 mph 23.0 mph 0.00 in   Scattered Clouds
4:55 PM 48.9 °F - 30.9 °F 50% 30.17 in 10.0 mi NNW 11.5 mph 20.7 mph N/A   Scattered Clouds
5:55 PM 48.0 °F - 28.9 °F 48% 30.18 in 10.0 mi NW 10.4 mph 18.4 mph 0.00 in   Mostly Cloudy
6:55 PM 46.9 °F - 28.9 °F 50% 30.19 in 10.0 mi NNW 6.9 mph - N/A   Mostly Cloudy
7:55 PM 46.0 °F 41.9 °F 28.9 °F 51% 30.20 in 10.0 mi NNW 8.1 mph - N/A   Mostly Cloudy
8:55 PM 43.0 °F 39.5 °F 30.0 °F 60% 30.21 in 10.0 mi WNW 5.8 mph - N/A   Mostly Cloudy
9:55 PM 42.1 °F 36.6 °F 28.9 °F 60% 30.21 in 10.0 mi NW 9.2 mph - N/A   Mostly Cloudy
10:55 PM 42.1 °F 35.7 °F 28.9 °F 60% 30.21 in 10.0 mi NW 11.5 mph - N/A   Scattered Clouds
11:55 PM 41.0 °F 34.3 °F 28.9 °F 62% 30.21 in 10.0 mi NW 11.5 mph - N/A   Clear